星链-35561(STARLINK-35561)

导读 | 豆包AI

STARLINK-35561是美国SpaceX公司星链星座的一颗低轨通信卫星,于2025年10月19日发射升空。星链星座旨在为全球提供高速宽带互联网接入服务,该卫星采用平板设计,搭载氪工质霍尔推进器,配备Ku/Ka波段通信载荷与光学星间链路,运行于近地轨道,具备自主避撞能力,寿命末期将主动离轨再入大气层烧毁,助力星链实现更广域的全球互联覆盖。

Basic Information
目录编号:
66105
目录名称:
STARLINK-35561
国际标识:
2025-236V
轨道中心:
EARTH
卫星名称:
星链-35561
卫星全名:
星链-35561(STARLINK-35561)
卫星状态:
在轨 (已飞行218 天)
发射日期:
2025-10-19 UTC
国别 :
美国 (US)
星等 :
--
Orbit Information
数据来源 国际轨道数据 AOE轨道数据
星历时间 2026-05-25T12:08:57+0800
8小时前
查看轨道信息
2026-05-22T18:00:00+0800
3天前
查看轨道信息
半长轴 6853.324km 6853.343km
偏心率 0.0001342 0.0001258
轨道倾角 53.158° 53.157°
近地点辐角 92.066° 93.720°
升交点赤经 108.675° 121.478°
平近点角 268.050° 194.779°
近地点 474.267km 474.343km
远地点 476.107km 476.069km
周期 94.105分钟 94.105分钟
每日圈数 15.302097 15.302031
Detailed Information
固有亮度:
5
最大亮度:
2.5
卫星平台:
Starlink V1.0
覆盖范围:
全球
运营商:
太空探索技术公司
运营商所在国:
美国
制造商(研发单位):
太空探索技术公司
制造商所在国:
美国
使用方式:
暂无
Satellite Introduction
Starlink 计划是 SpaceX 推出的全球卫星互联网项目,通过发射低轨道卫星,为全球尤其是偏远地区提供高速、低延迟的互联网服务。自 2019 年起,Starlink 已部署数千颗卫星,旨在缩小全球数字鸿沟,推动互联网普及。该项目还为军事、航空等行业提供通信支持,带来广泛经济效益。
2D Orbit Map
3D Orbit Map
Orbit Altitude Analysis Chart
Orbit Inclination Analysis Chart
Orbit Comprehensive Analysis Chart
View Comprehensive Chart